Starlink 1788

operational
NORAD ID: 46689 Int'l Des: 2020-073 Owner: SPXS Country: US Constellation: starlink
LEOCIRCULARSTARLINK_TYPE

关于 Starlink 1788

正在加载描述...

实时位置

正在加载3D地球...

即将过境

高度历史

Altitude vs Time

uPlot chart will show altitude changes over time

两行轨道根数

1 46689U 20073V 25298.50003471 .02042824 00000-0 89937-1 0 9990
2 46689 53.0542 143.9315 0001238 73.9334 235.6575 15.17694925 5785
Epoch: Oct 25, 2025 • Age: 5 hours

当前状态

高度 515.2 km
速度 7.61 km/s
星下点 49.11°N, 90.76°W
发射日期 Oct 18, 2020
运行时间 5 years
类型 internet

技术详情

分类 Payload
质量 260.00 kg
干质量 248.00 kg
总质量 260.00 kg
长度 0.20 m
直径 2.80 m
跨度 9.00 m
形状 Box + pan
制造商 SPXS
平台类型 Starlink
阶段状态 In Orbit
所有者/国家 SPXS/US

大型星座

Loading constellations...